www.pogodaiklimat.ru

Погода и климат >> Архив погоды >> Канада >> Spence bay


ПОГОДА в Spence bay

  • Прогноз погоды в Spence bay
  • Монитор погоды в Spence bay
  • Климат города

АРХИВ ПОГОДЫ в Spence bay

Время (UTC), дата Ветер
(напр.,м/с)
 
Видим.   Явления Облачность Т
(С)
Тd
(С)
f
(%)
Тe
(С)
Тes
(С)
Комфортность P
(гПа)
Po
(гПа)
Тmin
(С)
Tmax
(С)
R
(мм)
S
(см)
06 17.03 800 м метель {снег} н/о -19.9 -22.8 78 -34 -34 опасность
обморожения
998.2 994.5 -28.5 -17.9 0.6 202
09 17.03 С 12 1200 м 9/9 1000 м
[]
-21.3 -24.3 77 -37 -37 опасность
обморожения
999.4 995.7
12 17.03 С 10 2000 м метель {снег} 4/4 1000 м
[Sc]
-22.7 -26.0 74 -37 -37 опасность
обморожения
1001.9 998.2 -22.7 -17.9 0.4 29
15 17.03 С 10 800 м 4/4 1000 м
[]
-21.8 -25.0 75 -36 -36 опасность
обморожения
1004.1 1000.4
18 17.03 1600 м слабый снег н/о -22.1 -25.7 72 -37 -37 опасность
обморожения
1006.4 1002.7 -22.8 -19.8 2 31
21 17.03 СЗ 10 800 м 4/4 1000 м
[]
-26.3 -30.3 69 -42 -42 опасность
обморожения
1008.7 1005.0
00 18.03 СЗ 11 1600 м метель {снег} ясно -28.7 -32.6 69 -46 -46 опасность
обморожения
1010.3 1006.6 -28.7 -20.8 0.0 29
03 18.03 З 8 2000 м 1/1 1000 м
[]
-29.6 -33.6 68 -45 -45 опасность
обморожения
1011.1 1007.4
06 18.03 З 2 3200 м ледяные иглы {снег} 1/1 1000 м
[Sc]
-30.3 -34.3 68 -37 -37 опасность
обморожения
1011.2 1007.5 -30.9 -19.8 0.0 212
09 18.03 ЮЗ 4 4800 м 1/1 1000 м
[]
-30.7 -34.5 69 -41 -41 опасность
обморожения
1010.7 1006.9
12 18.03 Ю 7 4800 м ледяные иглы {снег} 3/1 1000 м
[Sc]
-28.8 -32.7 69 -43 -43 опасность
обморожения
1008.9 1005.1 -30.9 -19.8 0.0 29
15 18.03 ЮЗ 7 3200 м 6/6 1000 м
[]
-25.5 -29.5 69 -39 -39 опасность
обморожения
1007.5 1003.8
18 18.03 1600 м слабый снег н/о -23.2 -26.9 72 -37 -37 опасность
обморожения
1005.9 1002.2 -30.9 -23.2 0.2 29
21 18.03 З 9 1600 м 8/8 1000 м
[]
-22.6 -26.2 72 -36 -36 опасность
обморожения
1005.7 1002.0
00 19.03 3200 м слабый снег н/о -23.2 -26.8 72 -34 -34 опасность
обморожения
1005.4 1001.7 -30.9 -22.5 0.4 29
03 19.03 З 4 6000 м 3/3 1000 м
[]
-26.2 -29.9 71 -36 -36 опасность
обморожения
1005.1 1001.4
06 19.03 СЗ 2 24 км ледяные иглы {снег} ясно -30.9 -34.7 69 -37 -37 опасность
обморожения
1006.1 1002.4 -31.1 -22.5 0.0 191
09 19.03 СЗ 6 24 км ясно -32.8 -36.9 67 -47 -47 опасность
обморожения
1006.9 1003.2
12 19.03 СЗ 10 20 км ледяные иглы {снег} ясно -34.1 -38.4 65 -52 -52 опасность
обморожения
1008.1 1004.3 -34.3 -22.5 0.0 29
15 19.03 СЗ 7 24 км ясно -32.9 -37.7 62 -48 -48 опасность
обморожения
1010.2 1006.3
18 19.03 СЗ 5 24 км ледяные иглы {снег} ясно -29.8 -34.9 61 -42 -41 опасность
обморожения
1012.1 1008.2 -34.8 -29.8 0.0 29
21 19.03 З 5 24 км 1/0
[]
-28.7 -33.7 62 -40 -40 опасность
обморожения
1013.1 1009.2
00 20.03 СЗ 8 24 км ледяные иглы {снег} ясно -31.5 -35.9 65 -47 -47 опасность
обморожения
1013.5 1009.6 -34.8 -28.3 0.0 29
03 20.03 СЗ 8 24 км ясно -31.7 -36.3 64 -48 -48 опасность
обморожения
1014.6 1010.7
06 20.03 СЗ 6 24 км ледяные иглы {снег} ясно -33.9 -38.7 62 -49 -49 опасность
обморожения
1014.6 1010.7 -34.8 -28.3 0.0 1
09 20.03 С 3 24 км ясно -35.5 -40.1 63 -45 -45 опасность
обморожения
1014.8 1010.9
12 20.03 С 1 24 км ледяные иглы {снег} ясно -33.9 -38.2 65 -35 -35 опасность
обморожения
1015.4 1011.5 -35.8 -28.3 0.0 29
15 20.03 З 1 24 км ясно -35.8 -40.2 64 -41 -39 опасность
обморожения
1015.5 1011.6
18 20.03 Ю 2 24 км ясно -32.6 -37.1 64 -41 -38 опасность
обморожения
1016.0 1012.1 -36.8 -32.6 29
21 20.03 Ю 2 24 км ясно -31.5 -36.2 63 -39 -38 опасность
обморожения
1016.9 1013.0
00 21.03 Ю 2 24 км 1/0
[As trans]
-32.2 -36.4 66 -40 -40 опасность
обморожения
1017.5 1013.6 -36.8 -31.1 29
03 21.03 ЮЗ 2 24 км ясно -33.8 -38.0 66 -41 -41 опасность
обморожения
1017.9 1014.0
06 21.03 Ю 1 24 км ясно -34.3 -38.3 67 -39 -39 опасность
обморожения
1018.0 1014.1 -36.8 -31.1 0.0 29
09 21.03 ЮВ 2 24 км ясно -35.5 -39.5 67 -44 -44 опасность
обморожения
1017.8 1013.9
12 21.03 ЮВ 3 24 км 1/1 1500 м
[Sc]
-34.0 -38.0 67 -44 -44 опасность
обморожения
1017.4 1013.5 -35.9 -31.1 29
15 21.03 ЮВ 3 19 км 9/9 1000 м
[]
-32.7 -36.9 66 -43 -43 опасность
обморожения
1016.7 1012.8
18 21.03 ЮВ 4 4800 м ледяные иглы {снег} 5/3 600 м
[Sc Ac trans Cs]
-29.0 -33.2 67 -39 -38 опасность
обморожения
1015.9 1012.0 -35.9 -29.0 0.0 29
21 21.03 ЮЗ 4 19 км 8/8 600 м
[]
-27.1 -31.3 67 -38 -38 опасность
обморожения
1015.7 1011.8
00 22.03 Ю 5 19 км ледяные иглы {снег} 4/1 600 м
[Sc Ac trans Ci fib]
-29.6 -33.5 69 -42 -42 опасность
обморожения
1015.9 1012.0 -35.9 -26.2 0.0 29
03 22.03 Ю 5 9000 м ясно -32.8 -36.7 68 -46 -46 опасность
обморожения
1015.4 1011.5
06 22.03 Ю 5 9000 м ледяные иглы {снег} ясно -34.4 -38.4 67 -48 -48 опасность
обморожения
1015.4 1011.5 -35.9 -26.2 0.0 29
09 22.03 Ю 5 9000 м ясно -35.8 -39.9 66 -49 -49 опасность
обморожения
1015.2 1011.3
12 22.03 Ю 5 24 км ледяные иглы {снег} 1/1 600 м
[Sc Ci fib]
-36.5 -40.6 66 -51 -51 опасность
обморожения
1014.7 1010.8 -36.7 -26.2 0.0 29
15 22.03 Ю 5 16 км 5/5 600 м
[]
-34.4 -38.5 66 -48 -48 опасность
обморожения
1013.5 1009.6
18 22.03 Ю 5 24 км ледяные иглы {снег} 4/3 600 м
[Sc Ac trans Ci fib]
-30.6 -34.7 67 -43 -42 опасность
обморожения
1012.2 1008.3 -36.7 -30.6 0.0 29
21 22.03 ЮЗ 7 19 км 6/6 300 м
[]
-28.4 -32.4 68 -42 -42 опасность
обморожения
1011.0 1007.1
00 23.03 З 2 19 км слабый снег 8/1 300 м
[Sc Ac trans Ci]
-29.2 -33.2 68 -37 -37 опасность
обморожения
1010.2 1006.3 -36.7 -28.2 0.2 29
03 23.03 ЮВ 1 24 км 4/4 600 м
[]
-31.3 -35.1 69 -36 -36 опасность
обморожения
1009.2 1005.3
06 23.03 Ю 1 16 км слабый снег 1/1 600 м
[Sc Ci fib]
-32.0 -35.8 69 -36 -36 опасность
обморожения
1009.4 1005.5 -36.7 -28.2 0.2 29
09 23.03 С 1 16 км 3/3 600 м
[]
-33.1 -37.1 67 -38 -38 опасность
обморожения
1010.6 1006.7
12 23.03 С 3 24 км слабый снег 4/3 600 м
[Sc Ci sp]
-31.8 -35.7 68 -41 -41 опасность
обморожения
1012.1 1008.2 -34.0 -28.2 0.0 29
15 23.03 ЮВ 2 24 км 3/3 600 м
[]
-33.2 -37.4 66 -41 -40 опасность
обморожения
1013.2 1009.3
18 23.03 Ю 3 24 км ледяные иглы {снег} 1/1 600 м
[Sc Ci fib]
-31.6 -36.0 65 -41 -38 опасность
обморожения
1014.3 1010.4 -34.0 -31.0 0.0 29
21 23.03 Ю 2 24 км 1/1 600 м
[]
-29.0 -33.5 65 -35 -33 опасность
обморожения
1015.3 1011.4
00 24.03 СЗ 10 4000 м метель 3/3 1000 м
[Sc Ac trans Ci fib]
-27.1 -31.2 68 -43 -43 опасность
обморожения
1016.0 1012.1 -34.0 -25.3 29
03 24.03 СЗ 9 16 км ясно -29.0 -33.2 67 -45 -45 опасность
обморожения
1017.1 1013.2

 

Местоположение метеостанции Spence bay (Канада): широта 69.55 долгота -93.58 высота над уровнем моря 28 м.

В архиве по умолчанию представлена погода в Spence bay за последнюю неделю. Архивные данные за месяц целиком и за предыдущие месяцы, начиная с января 2011 года, Вы можете получить, выбрав интересующий диапазон дат из раскрывающегося списка и нажав кнопку "Ввод!".

Внимание! Время в таблицах - всемирное. Для получения местного времени необходимо прибавить поправку, которая в Spence bay равна -6 ч.

Смотрите также архив погоды в соседних городах и на ближайших метеорологических станциях:

Погода в Shepherd Bay (Канада) (81 км)
Погода в Gjoa Haven Climate (Канада) (136 км)
Погода в Kugaaruk climate (Канада) (188 км)
Погода в Pelly Bay (Канада) (198 км)
Погода в Hat Island (Канада) (291 км)
Погода в Back River MAPS (Канада) (405 км)
Погода в Wager Bay (Канада) (444 км)
Погода в Cambridge Bay Gsn (Канада) (454 км)
Погода в Cambridge Bay Arpt (Канада) (454 км)
Погода в Ellice River AWS (Канада) (486 км)

Пояснения к столбцам:

Ветер - указаны скорость ветра в м/с - средняя за 10 мин, порывы в срок и между сроками (в фигурных скобках) и направление, откуда дует ветер: С - северный, СВ - северо-восточный, В - восточный, ЮВ - юго-восточный, Ю - южный, ЮЗ - юго-западный, З - западный, СЗ - северо-западный.
Видимость - горизонтальная дальность видимости в метрах или километрах. При видимости от 1 до 10 км при отсутствии осадков обычно наблюдается дымка, при ухудшении видимости до 1 км и менее - туман. В сухую погоду видимость может ухудшаться дымом, пылью или мглою.
Явления - указаны атмосферные явления, наблюдавшиеся в срок или в последний час перед сроком; фигурными скобками обозначены явления, наблюдавшиеся между сроками (за 1-3 часа до срока); квадратными скобками обозначены град или гололедные отложения с указанием их диаметра в мм.
Облачность - указаны через наклонную черту общая и нижняя облачность в баллах и высота нижней границы облаков в метрах; квадратными скобками обозначены формы облаков: Ci - перистые, Cs - перисто-слоистые, Cc - перисто-кучевые, Ac - высококучевые, As - высокослоистые, Sc - слоисто-кучевые, Ns - слоисто-дождевые, Cu - кучевые, Cb - кучево-дождевые. Подробнее классификацию облаков см. в Атласе облаков (PDF).
T - Температура воздуха - температура, измеренная на высоте 2 м над землей.
Td - Температура точки росы - температура, при понижении до которой содержащийся в воздухе водяной пар достигнет насыщения.
f - Относительная влажность воздуха - влажноcть воздуха, измеренная на высоте 2 м над землей.
Te - Эффективная температура - температура, которую ощущает одетый по сезону человек в тени. Характеристика душности погоды. При расчете учитывается влияние влажности воздуха и скорости ветра на теплоощущения человека.
Tes - Эффективная температура на солнце - температура, которую ощущает человек, с поправкой на солнечный нагрев. Характеристика знойности погоды. Зависит от высоты солнца над горизонтом, облачности и скорости ветра. Ночью, в пасмурную погоду, а также при ветре 12 м/с и более поправка равна нулю.
P - Атмосферное давление - приведенное к уровню моря атмосферное давление.
Po - Атмосферное давление - измеренное на уровне метеостанции атмосферное давление.
Tmin - Минимальная температура - минимум температуры воздуха на высоте 2 м над землей.
Tmax - Максимальная температура - максимум температуры воздуха на высоте 2 м над землей.
R - Количество осадков - Количество выпавших осадков, мм. При наведении курсора мыши на число - период времени, за который выпало указанное количество осадков.
S - Снежный покров - Высота снежного покрова, см. При наведении курсора мыши на число - состояние снежного покрова и степень покрытия местности в баллах.